[[{"header":{"parameterUnit":"m.s-1","parameterCategory":1,"la1":30.2991,"la2":30.254,"lo1":-89.0895,"lo2":-89.0444,"dy":0.0017,"dx":0.0017,"nx":28,"ny":28,"refTime":"2025-08-13T21:00:00:Z","depth":0,"parameterNumber":2,"parameterNumberName":"U-component_of_WINDS"},"data":[0,0,0,0,0,0,0,0,0,0,0,0,0,0,0,0,0,0,0,0,0,0,0,0,0,0,0,0,0,0,0,0,0,0,0,0,0,0,0,0,0,0,0,0,0,0,0,0,0,0,0,0,0,0,0,0,0,0,1.591,1.5911,0,1.5999,1.6,1.6001,1.5994,1.5993,1.5992,1.5991,1.6089,1.6093,1.6097,0,0,0,0,0,0,0,0,0,0,0,0,0,1.5743,1.5746,1.591,1.5911,1.5912,1.5999,1.6,1.6001,1.5995,1.5993,1.5991,1.599,1.6088,1.6093,1.6097,0,0,0,0,0,0,0,0,0,0,0,0,0,1.5822,1.5747,1.591,1.5919,1.5921,1.5999,1.6,1.6002,1.5995,1.5993,1.5991,1.5989,1.6086,1.6092,1.6098,1.6174,0,0,1.6116,1.6118,0,0,0,0,0,0,0,0,1.5818,1.5829,1.5917,1.5919,1.5921,1.5983,1.5977,1.606,1.5996,1.5967,1.599,1.5988,1.6056,1.6064,1.6086,1.6179,1.6183,1.6116,1.612,1.6122,1.6124,0,0,0,0,0,0,0,1.5813,1.5825,1.5946,1.5918,1.5921,1.5922,1.5931,1.5993,1.6022,1.597,1.5969,1.5979,1.6057,1.608,1.6088,1.6184,1.6116,1.6121,1.6125,1.6127,1.6347,1.6349,0,0,0,0,0,0,1.5804,1.582,1.5943,1.5948,1.5863,1.5926,1.5937,1.5966,1.6021,1.6028,1.5981,1.5979,1.6071,1.6081,1.6091,1.6186,1.6122,1.6128,1.6131,1.6344,1.6347,1.635,0,0,0,0,0,0,1.58,1.5815,1.5939,1.5884,1.59,1.5931,1.5964,1.5968,1.5991,1.603,1.6036,1.5999,1.607,1.6083,1.6153,1.6189,1.613,1.6135,1.6342,1.6345,1.6349,1.6374,0,0,0,0,0,0,1.5795,1.5813,1.5841,1.5885,1.5903,1.5997,1.5966,1.5972,1.6,1.5998,1.6048,1.6055,1.6069,1.6145,1.6159,1.6196,1.614,1.6339,1.6343,1.6347,1.637,1.6378,1.6384,0,0,0,0,0,1.5789,1.5846,1.5842,1.5857,1.5937,1.5999,1.601,1.6023,1.6003,1.6032,1.6058,1.6053,1.6182,1.6152,1.6168,1.6207,1.6337,1.6342,1.6347,1.6367,1.6376,1.6384,0,0,0,0,0,0,1.5807,1.5851,1.5848,1.5919,1.5955,1.5998,1.6035,1.6033,1.6077,1.6074,1.6091,1.6103,1.6173,1.6197,1.6163,1.6285,1.6257,1.6266,1.6266,1.6276,1.6283,1.6276,1.6145,0,0,0,0,0,1.5819,1.5863,1.59,1.596,1.5978,1.6003,1.6031,1.6038,1.6077,1.6093,1.6123,1.6163,1.6213,1.6246,1.6294,1.6373,1.6385,1.6408,1.6415,1.6421,1.6429,1.6474,1.6485,1.6367,1.6367,1.6367,0,0,1.5845,1.5874,1.5902,1.5964,1.5993,1.6041,1.6016,1.6068,1.6104,1.6102,1.6169,1.6193,1.6239,1.6315,1.635,1.6337,1.6464,1.6428,1.6432,1.6437,1.6481,1.6492,1.6502,1.6371,1.637,1.637,0,0,1.5916,1.5942,1.5995,1.6024,1.6067,1.6083,1.6096,1.6139,1.6154,1.6222,1.6221,1.6267,1.6351,1.6385,1.6413,1.6498,1.6496,1.6513,1.6551,1.6596,1.6605,1.6613,1.6645,1.6656,1.6521,1.6521,1.6521,0,1.5944,1.6013,1.6023,1.6075,1.6104,1.6101,1.6157,1.6185,1.6243,1.6264,1.6248,1.6355,1.6386,1.647,1.6491,1.6513,1.653,1.6508,1.6602,1.6611,1.6619,1.6649,1.6661,1.6523,1.6522,1.6522,1.6522,0,1.6045,1.6094,1.6132,1.6185,1.6218,1.6271,1.6293,1.6325,1.633,1.6349,1.642,1.6457,1.6512,1.6533,1.6539,1.6619,1.6609,1.6598,1.6571,1.6632,1.6661,1.6673,1.6525,1.6525,1.6524,1.6524,0,0,1.613,1.6188,1.6202,1.6227,1.6274,1.6313,1.6368,1.642,1.6449,1.6489,1.6537,1.6609,1.6599,1.6631,1.6641,1.6679,1.6746,1.6663,1.6665,1.6679,1.6838,1.6847,1.686,1.6745,1.6747,1.6749,1.6835,0,1.6207,1.6301,1.6312,1.6397,1.6443,1.6442,1.649,1.6526,1.6545,1.659,1.6613,1.6664,1.6646,1.6665,1.6703,1.673,1.6779,1.6724,1.6792,1.6795,1.6781,1.6875,1.6885,1.6964,1.6846,1.6848,1.685,0,1.6309,1.635,1.6438,1.648,1.65,1.6543,1.6593,1.6634,1.6676,1.6688,1.6723,1.6729,1.6788,1.6757,1.6841,1.6803,1.6832,1.685,1.6853,1.6861,1.6826,1.6887,1.699,1.7002,1.6867,1.6866,1.6865,0,1.6364,1.6441,1.6504,1.6526,1.6576,1.6606,1.6629,1.6668,1.67,1.6744,1.6765,1.6816,1.6845,1.6886,1.6906,1.6882,1.6989,1.696,1.7003,1.7003,1.7026,1.7025,1.7136,1.7043,1.7043,1.7043,1.7043,0,1.645,1.6504,1.653,1.6569,1.6631,1.6645,1.6707,1.6729,1.6764,1.681,1.6813,1.6856,1.6879,1.6926,1.6943,1.701,1.7023,1.7036,1.704,1.7037,1.7035,1.7056,1.7052,1.7046,1.7045,1.7045,1.7044,0,1.6521,1.654,1.6609,1.6651,1.6663,1.6707,1.6744,1.6783,1.6802,1.686,1.6875,1.6906,1.6962,1.6986,1.7055,1.7066,1.7144,1.7144,1.7129,1.7131,1.7173,1.7169,1.7302,1.7321,1.7215,1.7216,1.7217,0,1.6575,1.6616,1.6662,1.6691,1.6715,1.6762,1.6794,1.681,1.6843,1.6894,1.6928,1.6983,1.7028,1.7119,1.7149,1.7203,1.7205,1.7248,1.7213,1.7208,1.7207,1.7204,1.7209,1.7254,1.7255,1.7256,1.7257,0,1.6668,1.6676,1.6719,1.6767,1.6804,1.6843,1.6881,1.6905,1.6928,1.6966,1.7021,1.7056,1.7127,1.7183,1.7238,1.7265,1.7266,1.7268,1.7281,1.7278,1.7268,1.7275,1.7148,1.7265,1.7264,1.7263,1.7263,1.7263,1.6734,1.6771,1.6809,1.6858,1.6888,1.6924,1.6963,1.6986,1.7032,1.7089,1.7097,1.7157,1.72,1.7274,1.7303,1.7353,1.7342,1.7361,1.7366,1.737,1.7373,1.7259,1.7363,1.7363,1.7362,1.7362,1.7362,0,1.6828,1.6853,1.6897,1.695,1.6989,1.6984,1.7026,1.706,1.7112,1.7151,1.7195,1.726,1.7315,1.7349,1.7405,1.7438,1.744,1.7452,1.745,1.7457,1.7379,1.7362,1.745,1.745,1.745,1.745,1.745,1.7449,1.6882,1.6945,1.6958,1.7037,1.7062,1.7119,1.7143,1.7177,1.7208,1.728,1.7324,1.7346,1.7384,1.7442,1.7493,1.7502,1.7523,1.7536,1.7545,1.7471,1.7462,1.7454,1.7438,1.754,1.754,1.7619,1.762,1.762]},{"header":{"parameterUnit":"m.s-1","parameterCategory":1,"la1":30.2991,"la2":30.254,"lo1":-89.0895,"lo2":-89.0444,"dy":0.0017,"dx":0.0017,"nx":28,"ny":28,"refTime":"2025-08-13T21:00:00:Z","depth":0,"parameterNumber":3,"parameterNumberName":"V-component_of_WINDS"},"data":[0,0,0,0,0,0,0,0,0,0,0,0,0,0,0,0,0,0,0,0,0,0,0,0,0,0,0,0,0,0,0,0,0,0,0,0,0,0,0,0,0,0,0,0,0,0,0,0,0,0,0,0,0,0,0,0,0,0,2.4112,2.4113,0,2.4158,2.4159,2.4159,2.4142,2.4141,2.414,2.4139,2.4183,2.4185,2.4187,0,0,0,0,0,0,0,0,0,0,0,0,0,2.4005,2.4007,2.4112,2.4113,2.4113,2.4158,2.4159,2.4159,2.4142,2.4141,2.414,2.4139,2.4183,2.4185,2.4188,0,0,0,0,0,0,0,0,0,0,0,0,0,2.4051,2.4008,2.4112,2.411,2.4111,2.4158,2.4159,2.4159,2.4143,2.4141,2.414,2.4138,2.4182,2.4185,2.4188,2.4239,0,0,2.4198,2.4199,0,0,0,0,0,0,0,0,2.4049,2.4055,2.411,2.4111,2.4111,2.4143,2.4137,2.4186,2.4143,2.413,2.4139,2.4137,2.4171,2.4175,2.4187,2.4241,2.4243,2.4198,2.42,2.4201,2.4202,0,0,0,0,0,0,0,2.4046,2.4053,2.413,2.4111,2.4111,2.4106,2.4111,2.4146,2.4159,2.4131,2.413,2.4136,2.4171,2.4184,2.4188,2.4243,2.4198,2.4201,2.4203,2.4204,2.4337,2.4338,0,0,0,0,0,0,2.4043,2.4051,2.4129,2.4132,2.4076,2.4109,2.4114,2.4134,2.4158,2.4161,2.4137,2.4135,2.4179,2.4184,2.4189,2.4247,2.4201,2.4204,2.4206,2.4335,2.4337,2.4339,0,0,0,0,0,0,2.4041,2.405,2.4127,2.4091,2.41,2.4112,2.4135,2.4136,2.4149,2.4163,2.4165,2.4149,2.4178,2.4185,2.4226,2.4248,2.4206,2.4209,2.4333,2.4336,2.4338,2.4364,0,0,0,0,0,0,2.4038,2.4049,2.407,2.4092,2.4102,2.4164,2.4136,2.4138,2.4155,2.4152,2.4174,2.4176,2.4177,2.4221,2.4229,2.4252,2.4211,2.4331,2.4334,2.4337,2.4361,2.4367,2.4372,0,0,0,0,0,2.4034,2.4076,2.4071,2.4081,2.4129,2.4166,2.4172,2.4173,2.4157,2.4176,2.4185,2.4175,2.4245,2.4225,2.4234,2.4258,2.433,2.4333,2.4337,2.4359,2.4366,2.4372,0,0,0,0,0,0,2.4057,2.4079,2.4074,2.4125,2.4143,2.4163,2.4188,2.4182,2.4205,2.4201,2.4202,2.4207,2.4248,2.4258,2.4235,2.4306,2.4284,2.429,2.4298,2.4305,2.4311,2.4306,2.4214,0,0,0,0,0,2.4068,2.4097,2.4115,2.4157,2.4167,2.4176,2.4192,2.4192,2.4211,2.4218,2.423,2.4248,2.4273,2.429,2.4315,2.4363,2.4366,2.4384,2.439,2.4394,2.4398,2.442,2.4427,2.435,2.435,2.435,0,0,2.409,2.4106,2.4125,2.4162,2.4177,2.4205,2.4183,2.4215,2.4235,2.4223,2.4262,2.4271,2.4291,2.4334,2.4354,2.4344,2.442,2.4399,2.4402,2.4404,2.4425,2.4432,2.4438,2.4353,2.4352,2.4352,0,0,2.4146,2.4162,2.4198,2.4212,2.4234,2.424,2.4248,2.4268,2.4274,2.4313,2.4303,2.4327,2.4372,2.4385,2.4398,2.4456,2.4446,2.4464,2.4491,2.4513,2.4519,2.4525,2.4542,2.4548,2.4468,2.4468,2.4468,0,2.4171,2.4214,2.4217,2.4248,2.4263,2.4254,2.4289,2.4303,2.4332,2.4341,2.4329,2.4383,2.4397,2.4441,2.4455,2.4467,2.4474,2.446,2.4519,2.4524,2.4529,2.4545,2.4552,2.447,2.447,2.447,2.447,0,2.4242,2.4272,2.4298,2.4325,2.4344,2.4377,2.4382,2.44,2.4398,2.4404,2.4441,2.4457,2.4482,2.4494,2.4492,2.4537,2.453,2.4518,2.4496,2.4538,2.4553,2.4559,2.4473,2.4472,2.4471,2.4471,0,0,2.4312,2.434,2.4349,2.4359,2.4382,2.4405,2.4436,2.4462,2.4475,2.4495,2.4519,2.4557,2.4545,2.456,2.4559,2.4579,2.4619,2.4565,2.4565,2.4571,2.4666,2.4672,2.4679,2.4614,2.4615,2.4616,2.4663,0,2.4367,2.4422,2.4424,2.4474,2.4499,2.449,2.4517,2.4533,2.4539,2.456,2.4566,2.4591,2.4576,2.4584,2.4604,2.461,2.4637,2.4607,2.4633,2.4634,2.4626,2.4688,2.4695,2.4739,2.4669,2.467,2.4671,0,2.4437,2.4458,2.4511,2.4527,2.4537,2.4562,2.4583,2.4605,2.4621,2.4624,2.4639,2.4635,2.4664,2.4643,2.4681,2.4661,2.4672,2.4676,2.4678,2.4678,2.4653,2.4687,2.4753,2.4758,2.4681,2.468,2.468,0,2.4478,2.4521,2.4556,2.4566,2.4587,2.4603,2.4612,2.4628,2.4642,2.4661,2.4669,2.4692,2.4703,2.4719,2.472,2.4705,2.4758,2.4737,2.4759,2.4759,2.4768,2.4767,2.4834,2.4781,2.4781,2.478,2.478,0,2.4537,2.4568,2.4574,2.4596,2.463,2.4631,2.4664,2.4672,2.4685,2.4706,2.4701,2.4721,2.4722,2.4742,2.4744,2.4773,2.4779,2.478,2.478,2.4779,2.4779,2.4785,2.478,2.4782,2.4782,2.4781,2.4781,0,2.4588,2.4594,2.4631,2.4648,2.4652,2.4676,2.4689,2.4708,2.4713,2.474,2.4747,2.4754,2.4777,2.478,2.4807,2.4808,2.4843,2.4841,2.4837,2.4836,2.4855,2.4852,2.4926,2.4935,2.4878,2.4879,2.4879,0,2.4624,2.4647,2.4665,2.4679,2.4689,2.4712,2.4726,2.4728,2.4742,2.4762,2.4778,2.48,2.4818,2.4855,2.4861,2.4881,2.4878,2.4902,2.488,2.4878,2.4874,2.4871,2.4872,2.4905,2.4906,2.4907,2.4907,0,2.4684,2.4685,2.4706,2.4728,2.4744,2.4761,2.4777,2.4788,2.4792,2.4808,2.4831,2.4845,2.4872,2.4893,2.4912,2.492,2.4913,2.4914,2.4919,2.4918,2.4913,2.4913,2.4845,2.4912,2.4911,2.4911,2.4911,2.491,2.4726,2.4746,2.476,2.4783,2.4795,2.4809,2.4827,2.4834,2.4854,2.4876,2.4876,2.49,2.4914,2.4939,2.4948,2.4966,2.4958,2.4966,2.4968,2.4969,2.497,2.4913,2.497,2.497,2.497,2.4969,2.4969,0,2.4784,2.4793,2.4814,2.4835,2.4852,2.4845,2.4862,2.4876,2.4898,2.4911,2.4929,2.4954,2.4974,2.4982,2.5001,2.5014,2.5011,2.5018,2.5016,2.5017,2.4978,2.497,2.502,2.502,2.502,2.502,2.502,2.502,2.4816,2.4847,2.4849,2.4885,2.4894,2.4918,2.4927,2.4939,2.495,2.4978,2.4995,2.5,2.5011,2.503,2.5047,2.5049,2.5055,2.5063,2.5063,2.5026,2.502,2.5015,2.5008,2.5065,2.5065,2.5101,2.5101,2.5102]}]]